Regional Weather Roundup
Issued by NWS

Home | Current Version | Previous Version | Text Only | Print | Product List | Glossary Off
Versions: 1 2 3 4 5 6 7 8 9 10 11 12 13 14 15 16 17 18 19 20 21 22 23 24 25 26 27 28 29 30 31 32 33 34 35 36 37 38 39 40 41 42 43 44 45 46 47 48 49 50

800
ASUS45 KABQ 242010
RWRNM
NEW MEXICO REGIONAL WEATHER ROUNDUP
NATIONAL WEATHER SERVICE ALBUQUERQUE NM
200 PM MDT TUE APR 24 2018

NOTE: "FAIR" MEANS FEW OR NO CLOUDS BELOW 12,000 FEET AGL WITH NO
       SIGNIFICANT WEATHER OR OBSTRUCTIONS TO VISION.

      THIS PRODUCT IS RELEASED AS TWO VERSIONS.  ONE VERSION NEAR
      THE TOP OF THE HOUR CONTAINING PRELIMINARY DATA FROM ALBUQUERQUE
      AND OTHER STATIONS.  A FINAL VERSION WITH ADDITIONAL DATA IS
      ISSUED ABOUT 10 MINUTES AFTER THE HOUR.

NMZ501-503-504-510>518-242100-
NORTHWEST PLATEAU/NORTHCENTRAL MOUNTAINS

CITY           SKY/WX    TMP DP  RH WIND       PRES   REMARKS
FARMINGTON     FAIR      75  20  12 W15G26    30.08F
LOS ALAMOS     FAIR      72  14  11 S14G32    30.16F
SANTA FE       FAIR      78  12   8 SW15G25   30.13F
TAOS           FAIR      73  17  12 SW23G32   30.14F
ANGEL FIRE     PTSUNNY   59  31  34 S13G23    30.24R

$$
NMZ402-403-502-505>509-242100-
WESTCENTRAL MOUNTAINS/SOUTHWEST MOUNTAINS

CITY           SKY/WX    TMP DP  RH WIND       PRES   REMARKS
GALLUP         FAIR      78  15   9 SW20      30.15F
GRANTS         FAIR      75  14  10 E3        30.16F
SILVER CITY    FAIR      80  17   9 W7        30.13

$$
NMZ407-409-411-412-242100-
SOUTHERN DESERTS

CITY           SKY/WX    TMP DP  RH WIND       PRES   REMARKS
DEMING         FAIR      87  20   8 SW13G21   30.06F
LAS CRUCES     FAIR      89  20   8 SW6       30.07F
ALAMOGORDO     FAIR      84  25  11 E6        30.06
T OR C         FAIR      86  13   6 S12G17    30.06F

$$
NMZ519>523-242100-
CENTRAL VALLEYS/CENTRAL HIGHLANDS

CITY           SKY/WX    TMP DP  RH WIND       PRES   REMARKS
ALBUQUERQUE    PTSUNNY   79  19  10 VRB3      30.10F
DOUBLE EAGLE   PTSUNNY   77  16  10 SW8       30.13F
MORIARTY ARPT  FAIR      80  18  10 SW15G26   30.15S
CLINES CORNERS FAIR      71  32  23 E21G32    30.20F
BELEN          FAIR      83  13   7 SW16G23   30.08
SOCORRO        FAIR      83  17   8 SE12      30.07F

$$
NMZ524>526-539-540-242100-
SOUTHCENTRAL MOUNTAINS

CITY           SKY/WX    TMP DP  RH WIND       PRES   REMARKS
RUIDOSO        NOT AVBL

$$
NMZ527>531-242100-
NORTHEAST HIGHLANDS/NORTHEAST PLAINS

CITY           SKY/WX    TMP DP  RH WIND       PRES   REMARKS
LAS VEGAS      FAIR      64  34  32 E13G21    30.21F
RATON          FAIR      52  33  48 NE22G31   30.25S
CLAYTON        CLOUDY    47  36  65 N24G32    30.26S

$$
NMZ532>537-242100-
EASTCENTRAL PLAINS

CITY           SKY/WX    TMP DP  RH WIND       PRES   REMARKS
SANTA ROSA     FAIR      69  36  29 NE18G24   30.17F
TUCUMCARI      FAIR      66  43  43 NE21G28   30.16S
CANNON AFB     NOT AVBL
CLOVIS AIRPORT FAIR      71  44  37 NE18G26   30.15F

$$
NMZ028-029-538-242100-
SOUTHEAST PLAINS

CITY           SKY/WX    TMP DP  RH WIND       PRES   REMARKS
ROSWELL        FAIR      88  28  11 NE18G24   30.00F
ARTESIA        FAIR      90  30  12 VRB3      29.98F
CARLSBAD       FAIR      93  30  10 SE12      29.95F
HOBBS          SUNNY     90  21   8 SW12      30.00F


$$




USA.gov is the U.S. government's official web portal to all federal, state and local government web resources and services.